Wind_Speed
10 10 11 11 10 10 10 10 10 10 9 9 9 8 7 7 7 7 7 7 6 5 5 5 6 6 6 6 5 5 5 5 4 4 3 3 2 2 2 2 2 3 3
11 11 12 12 12 12 12 12 11 11 11 11 10 9 9 9 9 9 9 8 8 8 7 7 7 7 7 7 7 6 6 5 5 4 4 3 3 3 3 3 3 3 3
12 12 13 13 13 13 13 13 12 12 12 11 11 11 11 10 10 10 10 10 10 10 9 9 9 9 9 8 8 7 7 6 5 5 4 4 4 3 3 3 3 2 2
14 14 14 14 15 15 15 15 14 14 13 13 12 12 12 12 12 11 11 11 11 11 11 10 10 10 10 9 8 8 7 7 6 5 5 4 4 4 4 3 3 3 2
16 16 16 16 16 16 16 16 16 16 15 15 15 14 14 13 13 12 13 13 13 12 12 12 11 11 10 10 10 9 9 8 7 6 6 5 5 4 4 4 3 3 3
17 18 18 18 18 17 18 18 18 18 17 17 16 16 15 15 15 14 14 14 14 13 13 13 13 12 12 11 10 10 10 9 9 8 8 7 7 6 5 5 4 4 4
19 19 20 20 20 20 19 19 19 19 19 19 19 18 17 17 17 16 16 15 15 15 14 14 14 13 13 12 11 11 11 11 10 10 10 9 9 8 7 7 6 6 6
21 21 22 22 22 22 21 21 21 20 20 20 20 20 19 19 19 18 18 17 16 16 15 15 15 14 14 14 13 13 12 12 11 11 11 11 11 10 9 9 8 8 7
23 24 24 25 24 24 24 23 23 22 22 21 21 21 21 21 20 20 19 19 19 19 18 17 17 17 16 16 16 15 14 14 13 12 12 12 12 11 11 11 10 9 9
26 26 27 27 27 26 26 26 25 24 23 23 22 23 23 23 22 22 21 21 21 21 20 20 19 19 18 18 18 17 16 16 15 14 14 13 13 13 13 12 12 12 11
28 28 28 28 28 28 28 28 27 26 25 25 25 25 25 25 25 24 24 23 23 23 22 22 21 21 21 20 19 19 19 18 18 17 16 15 15 14 14 14 14 14 13
30 30 29 29 30 29 29 29 30 29 28 28 27 27 27 28 27 27 27 26 26 25 25 24 24 23 23 22 22 21 21 20 20 20 19 18 18 17 16 16 16 16 15
31 31 31 31 32 32 31 31 31 32 31 31 30 30 29 29 30 30 29 29 29 28 27 27 26 26 25 25 24 24 23 23 22 22 21 21 20 20 19 19 18 18 18
32 32 33 33 33 33 33 34 33 34 34 33 32 32 32 32 32 32 32 31 31 31 30 30 29 29 28 28 27 27 26 26 25 25 24 24 23 22 22 22 21 21 20
34 34 34 35 35 35 35 36 36 36 36 36 36 35 34 34 34 34 34 34 33 33 33 33 32 31 31 30 30 30 29 28 28 27 27 26 26 26 25 25 24 24 23
35 35 36 36 37 37 37 37 38 38 38 38 38 37 37 36 36 36 36 36 35 35 35 35 35 34 34 33 33 33 32 31 30 30 29 29 29 28 28 28 27 27 26
37 37 37 38 38 39 39 39 39 39 40 40 40 39 39 38 38 38 38 38 37 37 37 37 37 37 37 36 35 35 35 34 33 32 32 31 31 30 30 30 30 29 29
37 38 39 39 40 40 40 40 40 41 42 42 42 41 40 41 40 40 40 40 39 39 39 39 39 39 39 39 38 38 37 37 36 35 34 34 33 32 32 32 32 32 31
38 38 39 40 41 41 41 41 40 42 42 43 43 43 43 43 42 42 42 42 41 41 41 41 41 41 41 41 41 40 39 39 38 38 37 36 35 35 35 34 34 34 34
39 40 40 41 41 42 42 42 42 42 43 44 45 45 45 44 44 44 44 44 44 44 43 44 43 43 43 43 43 42 41 41 40 40 40 39 39 38 37 37 37 36 36
40 41 41 41 41 42 43 44 44 44 44 46 46 45 46 46 46 46 45 45 45 46 45 46 46 45 45 45 45 45 44 43 42 42 42 42 41 41 40 40 40 39 39
40 40 40 41 42 43 44 46 45 45 45 46 47 47 47 48 48 47 48 47 47 47 47 47 47 47 47 47 47 47 47 46 45 45 45 44 44 44 43 43 43 43 42
40 40 40 41 42 44 46 47 47 47 47 48 48 49 49 49 49 49 48 48 48 49 49 49 49 49 49 49 49 49 49 49 48 47 47 47 46 46 46 46 46 45 45
40 40 40 42 43 45 47 48 48 49 49 48 49 50 51 51 51 50 50 50 50 50 50 50 51 51 51 51 51 51 51 51 51 50 49 49 49 49 49 49 49 48 48
40 41 42 43 44 46 47 48 49 50 51 50 50 51 51 51 51 51 51 51 51 51 51 51 52 52 52 53 53 53 53 52 53 53 51 51 51 51 50 50 51 51 51
40 41 42 44 45 46 47 49 50 51 51 51 51 51 52 52 52 52 51 51 51 52 51 52 53 53 53 54 54 54 54 53 54 54 53 53 52 52 52 52 52 52 53
Wind_Direction
246 245 245 243 243 239 235 236 239 237 236 234 239 243 245 247 251 252 253 254 256 256 254 250 252 255 261 264 260 260 262 266 268 264 268 274 278 289 313 334 342 352 359
249 249 248 247 246 245 241 242 242 241 244 245 247 250 252 251 251 255 255 255 257 260 259 258 256 256 258 259 259 262 262 270 263 260 260 266 275 281 290 300 312 323 341
251 250 250 248 248 248 247 246 246 247 249 250 253 256 256 254 255 256 257 257 259 260 261 261 258 258 258 256 256 260 262 269 260 256 256 259 266 270 277 289 299 315 325
252 252 250 250 250 250 249 249 251 253 254 255 257 258 259 258 258 260 260 259 260 261 262 262 260 260 258 256 254 259 262 264 257 254 256 257 261 266 273 284 288 296 311
253 253 252 252 252 252 251 252 253 254 256 257 258 258 258 259 260 262 263 262 261 261 261 262 261 260 258 254 253 255 257 255 252 252 254 255 257 264 271 278 278 282 293
255 254 252 253 253 252 252 253 253 253 254 256 258 258 259 259 260 261 263 262 260 260 258 259 260 260 257 252 250 251 254 255 250 248 249 251 253 258 264 273 275 275 281
257 256 255 254 254 253 253 253 253 254 255 254 256 257 258 258 259 260 260 261 260 258 257 257 258 259 255 253 252 251 252 254 251 248 249 250 254 258 260 265 270 270 274
257 256 256 255 255 254 253 253 254 253 254 254 255 256 257 258 258 258 258 259 259 258 255 254 256 257 255 253 254 252 252 253 253 251 251 251 253 256 259 262 266 268 270
257 256 255 255 256 256 255 254 254 255 254 254 254 255 256 257 257 257 257 257 257 257 256 254 255 256 256 254 254 254 252 252 253 252 252 252 253 254 256 259 263 265 266
258 258 256 255 255 256 256 255 254 254 254 254 253 254 255 256 256 256 257 257 256 255 256 255 256 257 257 256 254 254 253 252 252 252 253 253 253 254 256 258 260 261 262
259 258 257 256 255 255 255 255 254 255 254 254 254 255 255 255 256 256 256 256 256 255 254 255 256 256 257 257 256 255 254 253 253 253 254 254 253 254 255 257 259 260 262
259 257 257 257 256 255 255 255 255 254 254 255 256 256 256 255 256 256 256 255 255 255 254 254 255 255 255 256 255 255 254 253 253 254 254 254 254 255 256 257 258 259 261
259 258 257 257 256 256 255 255 256 256 255 256 256 256 256 256 256 256 257 256 255 255 255 254 254 255 255 255 255 254 254 254 254 254 254 255 254 255 256 257 257 258 259
260 258 257 256 256 255 255 255 255 256 256 256 257 257 257 257 257 257 258 258 257 256 255 254 254 254 254 254 255 255 255 255 255 255 255 255 254 255 256 257 257 257 258
260 259 258 257 256 255 255 256 256 256 256 256 257 258 258 258 257 257 259 259 258 257 256 254 254 254 254 254 255 255 255 255 255 255 255 255 255 255 256 257 257 257 257
260 259 258 258 257 256 256 257 257 257 257 258 258 259 259 259 259 259 260 260 259 258 257 256 254 254 254 254 255 255 256 256 256 256 256 256 256 256 256 257 257 257 258
260 259 259 259 259 258 257 258 258 258 258 258 258 259 259 260 260 260 261 261 260 258 258 257 255 254 254 254 255 255 256 256 256 257 257 256 256 256 257 257 257 257 258
261 260 260 260 260 259 258 259 259 259 259 258 258 258 259 259 259 260 260 260 260 259 257 257 255 255 255 255 255 256 256 256 256 257 257 256 256 257 257 257 257 257 257
262 261 261 261 260 258 258 258 259 258 259 259 258 258 259 259 259 259 260 260 259 259 257 256 255 255 255 255 255 256 256 256 256 257 257 257 256 257 257 257 257 257 257
263 263 263 262 260 258 258 258 259 260 260 260 259 258 258 259 260 259 259 260 259 258 258 257 256 255 254 254 254 255 256 257 257 257 257 257 256 256 257 258 258 257 257
265 265 264 262 259 258 259 259 260 261 261 260 260 259 258 258 260 260 260 260 259 259 258 258 257 255 255 254 254 254 255 256 257 257 258 258 257 257 257 257 258 258 258
266 266 263 262 260 260 259 259 261 262 262 262 261 260 259 259 259 260 260 260 260 259 258 258 257 256 255 254 254 254 255 256 257 257 258 258 259 258 258 258 258 258 258
266 265 263 262 261 261 260 260 262 263 263 263 262 261 260 260 259 260 260 260 260 259 258 258 257 256 255 255 254 254 255 255 256 257 257 258 259 259 259 259 259 258 258
266 265 264 263 263 263 263 263 263 263 263 264 263 262 261 261 260 260 261 260 260 259 259 258 257 256 256 255 255 255 255 256 256 256 257 257 258 259 260 260 259 259 259
267 266 265 264 265 265 265 264 264 263 263 263 263 262 261 261 260 260 261 260 260 259 258 258 257 256 256 256 256 256 256 256 256 257 257 257 258 259 260 260 260 260 259
267 267 266 266 266 266 266 266 266 265 263 264 263 262 261 260 260 260 261 259 259 258 258 258 258 257 256 256 256 256 256 256 257 257 257 258 258 259 259 260 260 260 260
Height
5827 5827 5828 5829 5830 5831 5831 5832 5833 5834 5835 5836 5836 5837 5838 5839 5840 5841 5841 5842 5842 5843 5843 5844 5844 5845 5845 5846 5846 5846 5847 5847 5847 5848 5848 5848 5848 5848 5848 5849 5848 5848 5848
5825 5825 5826 5827 5828 5829 5830 5831 5831 5832 5833 5834 5835 5836 5836 5837 5838 5839 5840 5840 5841 5841 5842 5842 5843 5843 5844 5844 5845 5845 5846 5846 5846 5847 5847 5847 5847 5848 5848 5848 5848 5848 5848
5822 5823 5824 5825 5826 5827 5828 5829 5829 5830 5831 5832 5833 5834 5835 5835 5836 5837 5838 5838 5839 5840 5840 5841 5841 5842 5842 5843 5843 5844 5844 5845 5845 5846 5846 5846 5847 5847 5847 5847 5847 5847 5847
5820 5821 5821 5822 5823 5824 5825 5826 5827 5828 5829 5830 5831 5832 5832 5833 5834 5835 5836 5836 5837 5838 5838 5839 5839 5840 5841 5841 5842 5842 5843 5843 5844 5845 5845 5845 5846 5846 5846 5846 5846 5846 5846
5817 5818 5819 5819 5820 5821 5823 5823 5824 5825 5826 5827 5828 5829 5830 5831 5832 5832 5833 5834 5835 5835 5836 5837 5837 5838 5839 5839 5840 5840 5841 5842 5843 5843 5844 5844 5845 5845 5845 5845 5845 5845 5846
5813 5814 5815 5816 5817 5818 5819 5820 5821 5822 5823 5824 5825 5826 5827 5828 5829 5830 5830 5831 5832 5833 5833 5834 5835 5835 5836 5837 5838 5838 5839 5840 5841 5841 5842 5842 5843 5844 5844 5844 5844 5844 5845
5809 5810 5811 5812 5813 5814 5815 5817 5817 5818 5820 5821 5822 5823 5824 5825 5826 5826 5827 5828 5829 5830 5831 5831 5832 5833 5834 5834 5835 5836 5837 5838 5838 5839 5840 5841 5841 5842 5842 5843 5843 5843 5844
5804 5805 5806 5807 5809 5810 5811 5812 5813 5814 5815 5817 5818 5819 5820 5821 5822 5823 5824 5825 5826 5826 5827 5828 5829 5830 5831 5832 5833 5833 5834 5835 5836 5837 5837 5838 5839 5839 5840 5841 5841 5841 5842
5798 5799 5801 5802 5804 5805 5806 5807 5809 5810 5811 5812 5813 5814 5815 5817 5818 5819 5820 5821 5822 5823 5823 5825 5826 5827 5827 5829 5830 5830 5831 5832 5833 5834 5835 5835 5836 5837 5838 5838 5839 5839 5840
5792 5794 5795 5796 5798 5799 5801 5802 5803 5805 5806 5807 5808 5810 5811 5812 5813 5814 5815 5816 5817 5818 5819 5820 5822 5823 5824 5825 5826 5827 5828 5829 5830 5831 5832 5832 5833 5834 5835 5836 5836 5837 5837
5786 5787 5789 5790 5791 5793 5795 5796 5798 5799 5800 5802 5803 5804 5805 5807 5808 5809 5810 5811 5812 5813 5815 5816 5817 5818 5820 5821 5822 5823 5824 5825 5826 5827 5828 5829 5830 5831 5832 5832 5833 5834 5834
5779 5780 5782 5783 5785 5786 5788 5790 5791 5793 5794 5796 5797 5798 5800 5801 5802 5803 5805 5806 5807 5808 5809 5811 5812 5813 5815 5816 5817 5819 5820 5821 5822 5823 5824 5825 5826 5827 5828 5829 5830 5831 5831
5771 5772 5774 5776 5777 5779 5781 5782 5784 5786 5787 5789 5790 5792 5793 5794 5795 5797 5798 5799 5801 5802 5803 5805 5806 5807 5809 5810 5812 5813 5815 5816 5817 5818 5819 5820 5822 5823 5824 5825 5826 5826 5827
5763 5764 5766 5767 5769 5771 5773 5775 5777 5778 5780 5781 5783 5784 5785 5787 5788 5789 5791 5792 5794 5795 5796 5798 5799 5801 5802 5804 5806 5807 5809 5810 5811 5813 5814 5815 5816 5818 5819 5820 5821 5822 5823
5755 5756 5757 5759 5761 5763 5765 5766 5768 5770 5772 5773 5774 5776 5777 5779 5780 5781 5783 5784 5786 5787 5789 5790 5792 5793 5795 5797 5799 5800 5802 5804 5805 5807 5808 5809 5810 5812 5813 5814 5816 5817 5818
5746 5747 5748 5750 5751 5753 5755 5757 5759 5761 5763 5764 5766 5767 5768 5770 5771 5773 5774 5775 5777 5778 5780 5782 5784 5785 5787 5789 5791 5793 5795 5796 5798 5800 5801 5803 5804 5805 5807 5808 5809 5811 5812
5736 5737 5739 5740 5741 5743 5745 5747 5749 5751 5753 5755 5756 5757 5759 5760 5762 5763 5765 5766 5767 5768 5770 5772 5774 5776 5778 5780 5783 5784 5786 5788 5790 5792 5794 5795 5797 5798 5799 5801 5802 5804 5805
5727 5728 5729 5730 5731 5733 5735 5737 5739 5740 5742 5744 5745 5747 5748 5750 5751 5753 5754 5756 5757 5758 5760 5762 5764 5766 5768 5771 5773 5775 5777 5779 5781 5783 5785 5787 5789 5790 5792 5793 5795 5796 5798
5717 5717 5718 5719 5720 5722 5724 5726 5727 5729 5731 5732 5734 5736 5737 5739 5740 5742 5743 5744 5746 5747 5749 5751 5753 5756 5758 5760 5763 5765 5768 5770 5772 5774 5776 5778 5780 5782 5783 5785 5786 5788 5790
5707 5707 5708 5709 5709 5711 5713 5715 5716 5718 5719 5720 5722 5724 5725 5727 5728 5730 5731 5733 5734 5736 5737 5739 5742 5744 5747 5749 5752 5755 5757 5760 5762 5764 5766 5768 5770 5772 5774 5776 5777 5779 5781
5696 5697 5697 5698 5699 5701 5702 5704 5705 5706 5707 5708 5709 5711 5713 5714 5716 5717 5719 5720 5722 5723 5725 5727 5729 5732 5735 5737 5740 5743 5746 5749 5751 5753 5755 5757 5760 5762 5764 5766 5767 5769 5771
5685 5686 5686 5687 5689 5690 5691 5692 5693 5694 5695 5696 5697 5698 5700 5701 5703 5704 5706 5707 5709 5710 5712 5714 5716 5719 5722 5724 5728 5731 5735 5738 5739 5742 5744 5746 5748 5750 5753 5755 5757 5758 5760
5675 5675 5676 5677 5678 5679 5679 5680 5681 5682 5683 5683 5684 5685 5687 5688 5690 5691 5692 5694 5696 5697 5699 5701 5703 5706 5709 5711 5714 5717 5721 5725 5727 5730 5732 5734 5736 5738 5740 5742 5744 5746 5749
5665 5665 5666 5666 5666 5667 5667 5667 5668 5669 5670 5670 5670 5671 5673 5674 5676 5677 5679 5680 5682 5683 5685 5687 5689 5692 5695 5697 5700 5703 5706 5710 5713 5717 5720 5721 5723 5725 5727 5729 5731 5733 5736
5655 5655 5655 5655 5655 5655 5655 5655 5655 5655 5656 5656 5656 5657 5659 5660 5662 5664 5665 5666 5668 5669 5671 5673 5675 5677 5680 5683 5686 5689 5692 5695 5698 5701 5706 5708 5710 5712 5714 5716 5717 5719 5721
5644 5644 5644 5644 5644 5643 5642 5642 5641 5641 5642 5643 5643 5644 5645 5647 5648 5649 5651 5652 5654 5655 5657 5659 5660 5663 5666 5669 5672 5674 5677 5680 5683 5686 5690 5693 5695 5698 5699 5701 5703 5705 5707